Home   Weather   Costa Mesa   Past weeks

Flag for USA Past Weather in Costa Mesa, California, USA — Yesterday and Last 2 Weeks

Now
69 °F

Passing clouds.


Feels Like: 69 °F
Forecast: 68 / 77 °F
Wind: 5 mph from Southwest

Location: John Wayne Airport-Orange County Airport

Current Time: Jul 25, 2017 at 9:51:54 pm

Latest Report: Jul 25, 2017 at 8:53 pm


Visibility: 10 mi

Pressure: 29.97 "Hg

Humidity: 81%

Dew Point: 63 °F

Location of Costa MesaLocation

Past Weather in Costa Mesa — Graph

°F

Costa Mesa Temperature Yesterday

Maximum temperature yesterday: 76 °F (at 1:53 pm)
Minimum temperature yesterday: 69 °F (at 12:24 am)
Average temperature yesterday: 72 °F

High & Low Weather Summary for the Past Weeks

 TemperatureHumidityPressure
High82 °F (Jul 19, 1:53 pm)93% (Jul 14, 12:53 am)30.02 "Hg (Jul 14, 12:53 am)
Low66 °F (Jul 14, 1:53 am)48% (Jul 14, 5:53 pm)29.81 "Hg (Jul 16, 5:53 pm)
Average72 °F77%29.92 "Hg
* Reported Jul 10 7:53 pm — Jul 25 7:53 pm, Costa Mesa. Weather by CustomWeather, © 2017

Note: Actual official high and low records may vary slightly from our data, if they occured in-between our weather recording intervals... More about our weather records

Advertising

Costa Mesa Weather History for the Previous 24 Hours

Scroll right to see more
 ConditionsComfort  
Time TempWeatherWind HumidityBarometerVisibility
7:53 pm
Tue, Jul 25
70 °FPassing clouds.8 mph79%29.96 "Hg10 mi
6:53 pm72 °FScattered clouds.9 mph76%29.96 "Hg10 mi
5:53 pm74 °FScattered clouds.9 mph71%29.96 "Hg10 mi
4:53 pm76 °FScattered clouds.12 mph64%29.95 "Hg10 mi
3:53 pm77 °FPartly sunny.10 mph64%29.95 "Hg10 mi
2:53 pm78 °FPartly sunny.10 mph62%29.96 "Hg10 mi
1:53 pm78 °FPartly sunny.12 mph62%29.96 "Hg10 mi
12:53 pm79 °FPartly sunny.10 mph62%29.97 "Hg10 mi
11:53 am76 °FPartly sunny.9 mph67%29.98 "Hg10 mi
11:11 am74 °FBroken clouds.5 mph71%29.98 "Hg10 mi
10:53 am74 °FPartly sunny.6 mph71%29.98 "Hg10 mi
9:53 am73 °FOvercast.5 mph76%29.97 "Hg10 mi
8:53 am71 °FPartly sunny.No wind78%29.96 "Hg10 mi
7:53 am71 °FPartly sunny.No wind78%29.96 "Hg10 mi
6:53 am70 °FPartly sunny.No wind81%29.94 "Hg10 mi
5:53 am69 °FPassing clouds.No wind84%29.93 "Hg10 mi
4:53 am69 °FOvercast.No wind84%29.93 "Hg10 mi
4:35 am69 °FPassing clouds.No wind84%29.93 "Hg10 mi
3:53 am69 °FClear.No wind84%29.93 "Hg10 mi
3:12 am69 °FPassing clouds.5 mph84%29.93 "Hg10 mi
2:53 am69 °FPassing clouds.5 mph84%29.93 "Hg10 mi
1:53 am69 °FOvercast.5 mph84%29.93 "Hg10 mi
1:06 am70 °FOvercast.3 mph84%29.94 "Hg10 mi
11:53 pm
Mon, Jul 24
70 °FOvercast.5 mph84%29.94 "Hg10 mi
11:00 pm70 °FOvercast.5 mph84%29.93 "Hg10 mi
9:53 pm70 °FPassing clouds.7 mph84%29.91 "Hg10 mi
Weather by CustomWeather, © 2017

See weather overviewHow to use our weather pages